Weather History for College Park, MD

Change the Weather History Date:

Monday, November 19, 2012

  Actual Average Record
Temperature  
Mean Temperature 48 °F -  
Max Temperature 56 °F 57 °F 73 °F (1957)
Min Temperature 40 °F 36 °F 23 °F (2014)
Degree Days  
Heating Degree Days 17    
Moisture  
Dew Point 37 °F    
Average Humidity 62    
Maximum Humidity 85    
Minimum Humidity 50    
Precipitation  
Precipitation 0.00 in - - ()
Sea Level Pressure  
Sea Level Pressure 30.37 in    
Wind  
Wind Speed 4 mph (North)    
Max Wind Speed 9 mph    
Max Gust Speed -    
Visibility 10 miles    
Events      
Averages and records for this station are not official NWS values.
T = Trace of Precipitation, MM = Missing Value Source: NWS Daily Summary

Daily Weather History Graph

Daily Weather History Graph

Search for Another Location

Airport:

Trip Planner

Search our weather history database for the weather conditions in past years. The results will help you decide how hot, cold, wet, or windy it might be!

Date:

Astronomy

Nov. 19, 2012 Rise Set
Actual Time 6:55 AM EST 4:50 PM EST
Civil Twilight 6:26 AM EST 5:19 PM EST
Nautical Twilight 5:54 AM EST 5:51 PM EST
Astronomical Twilight 5:22 AM EST 6:23 PM EST
Moon 11:58 AM EST (11/19) 11:14 PM EST (11/19)
Length of Visible Light 10h 52m
Length of Day
9h 55m
Waxing Crescent, 40% of the Moon is Illuminated
Nov 19
Waxing Crescent
Nov 20
First Quarter
Nov 28
Full
Dec 6
Last Quarter
Dec 13
New

Hourly Weather History & Observations

Time (EST) Temp. Dew Point Humidity Pressure Visibility Wind Dir Wind Speed Gust Speed Precip Events Conditions
12:10 AM 47.7 °F 36.5 °F 65% 30.51 in 10.0 mi North 3.5 mph - N/A   Overcast
12:35 AM 47.8 °F 36.1 °F 64% 30.50 in 10.0 mi North 4.6 mph - N/A   Overcast
12:55 AM 47.8 °F 36.1 °F 64% 30.49 in 10.0 mi NNE 4.6 mph - N/A   Overcast
1:15 AM 47.5 °F 36.1 °F 65% 30.48 in 10.0 mi NNE 3.5 mph - N/A   Overcast
2:00 AM 47.3 °F 36.3 °F 66% 30.48 in 10.0 mi North 4.6 mph - N/A   Overcast
2:20 AM 47.3 °F 36.5 °F 66% 30.48 in 10.0 mi North 4.6 mph - N/A   Overcast
3:05 AM 47.3 °F 36.5 °F 66% 30.48 in 10.0 mi NNE 3.5 mph - N/A   Overcast
3:25 AM 47.3 °F 36.5 °F 66% 30.47 in 10.0 mi North 5.8 mph - N/A   Overcast
3:45 AM 47.3 °F 36.5 °F 66% 30.46 in 10.0 mi North 3.5 mph - N/A   Overcast
4:05 AM 47.3 °F 36.7 °F 67% 30.46 in 10.0 mi North 4.6 mph - N/A   Overcast
5:30 AM 47.3 °F 36.9 °F 67% 30.46 in 10.0 mi North 4.6 mph - N/A   Overcast
5:55 AM 46.9 °F 36.9 °F 68% 30.46 in 10.0 mi North 4.6 mph - N/A   Overcast
6:15 AM 46.9 °F 36.9 °F 68% 30.45 in 10.0 mi North 3.5 mph - N/A   Overcast
6:35 AM 46.9 °F 37.0 °F 68% 30.45 in 10.0 mi North 3.5 mph - N/A   Overcast
6:55 AM 46.9 °F 36.9 °F 68% 30.45 in 10.0 mi NNE 4.6 mph - N/A   Overcast
7:20 AM 46.8 °F 36.7 °F 68% 30.45 in 10.0 mi North 4.6 mph - N/A   Overcast
8:00 AM 46.9 °F 36.9 °F 68% 30.45 in 10.0 mi NNE 4.6 mph - N/A   Overcast
8:20 AM 47.5 °F 37.0 °F 67% 30.44 in 10.0 mi NNE 5.8 mph - N/A   Overcast
8:45 AM 48.2 °F 36.7 °F 64% 30.45 in 10.0 mi NNE 5.8 mph - N/A   Overcast
9:05 AM 48.2 °F 36.9 °F 65% 30.45 in 10.0 mi North 6.9 mph - N/A   Overcast
9:25 AM 48.2 °F 37.0 °F 65% 30.45 in 10.0 mi North 5.8 mph - N/A   Overcast
9:45 AM 48.2 °F 36.9 °F 65% 30.44 in 10.0 mi North 5.8 mph - N/A   Overcast
10:10 AM 48.6 °F 37.0 °F 64% 30.43 in 10.0 mi NNE 5.8 mph - N/A   Overcast
10:30 AM 49.6 °F 37.4 °F 63% 30.43 in 10.0 mi NNE 6.9 mph - N/A   Overcast
10:50 AM 50.9 °F 37.8 °F 61% 30.42 in 10.0 mi NNE 6.9 mph - N/A   Overcast
11:10 AM 50.9 °F 37.6 °F 60% 30.41 in 10.0 mi North 8.1 mph - N/A   Overcast
11:55 AM 52.2 °F 37.6 °F 58% 30.39 in 10.0 mi NNE 5.8 mph - N/A   Overcast
12:15 PM 52.3 °F 37.8 °F 58% 30.38 in 10.0 mi North 6.9 mph - N/A   Overcast
12:35 PM 53.1 °F 37.8 °F 56% 30.37 in 10.0 mi North 6.9 mph - N/A   Overcast
1:00 PM 54.0 °F 37.8 °F 54% 30.34 in 10.0 mi North 5.8 mph - N/A   Overcast
1:20 PM 54.5 °F 37.9 °F 54% 30.33 in 10.0 mi NNE 5.8 mph - N/A   Mostly Cloudy
1:40 PM 55.9 °F 37.8 °F 51% 30.32 in 10.0 mi North 9.2 mph - N/A   Clear
2:00 PM 56.1 °F 37.6 °F 50% 30.32 in 10.0 mi North 4.6 mph - N/A   Scattered Clouds
2:25 PM 55.6 °F 37.4 °F 50% 30.32 in 10.0 mi North 4.6 mph - N/A   Overcast
2:45 PM 55.6 °F 37.6 °F 51% 30.32 in 10.0 mi North 5.8 mph - N/A   Overcast
3:05 PM 55.4 °F 37.4 °F 51% 30.32 in 10.0 mi North 5.8 mph - N/A   Overcast
3:25 PM 55.4 °F 37.6 °F 51% 30.31 in 10.0 mi NNW 6.9 mph - N/A   Mostly Cloudy
3:50 PM 55.0 °F 37.6 °F 52% 30.31 in 10.0 mi NNW 5.8 mph - N/A   Scattered Clouds
4:10 PM 54.1 °F 37.0 °F 52% 30.30 in 10.0 mi NW 6.9 mph - N/A   Scattered Clouds
4:30 PM 53.2 °F 37.0 °F 54% 30.30 in 10.0 mi NNW 3.5 mph - N/A   Scattered Clouds
4:50 PM 52.3 °F 37.2 °F 56% 30.31 in 10.0 mi Calm Calm - N/A   Mostly Cloudy
5:15 PM 52.2 °F 37.0 °F 56% 30.30 in 10.0 mi NNW 4.6 mph - N/A   Overcast
5:35 PM 51.3 °F 37.0 °F 58% 30.30 in 10.0 mi North 3.5 mph - N/A   Overcast
5:55 PM 50.9 °F 36.7 °F 58% 30.30 in 10.0 mi North 3.5 mph - N/A   Scattered Clouds
6:15 PM 50.0 °F 36.9 °F 61% 30.30 in 10.0 mi North 3.5 mph - N/A   Mostly Cloudy
6:40 PM 48.6 °F 38.3 °F 68% 30.30 in 10.0 mi Calm Calm - N/A   Overcast
7:00 PM 50.0 °F 36.7 °F 60% 30.30 in 10.0 mi North 4.6 mph - N/A   Overcast
7:20 PM 49.6 °F 35.8 °F 59% 30.29 in 10.0 mi NNW 4.6 mph - N/A   Overcast
7:40 PM 49.5 °F 35.2 °F 58% 30.29 in 10.0 mi North 3.5 mph - N/A   Overcast
8:05 PM 49.6 °F 34.0 °F 55% 30.29 in 10.0 mi Calm Calm - N/A   Overcast
9:05 PM 49.1 °F 33.8 °F 56% 30.28 in 10.0 mi NNW 3.5 mph - N/A   Overcast
9:30 PM 47.8 °F 33.4 °F 57% 30.26 in 10.0 mi Calm Calm - N/A   Scattered Clouds
9:50 PM 47.1 °F 33.6 °F 59% 30.26 in 10.0 mi Calm Calm - N/A   Clear
10:10 PM 43.9 °F 34.0 °F 68% 30.25 in 10.0 mi Calm Calm - N/A   Clear
10:30 PM 43.0 °F 33.8 °F 70% 30.25 in 10.0 mi Calm Calm - N/A   Clear
10:55 PM 40.6 °F 34.0 °F 77% 30.25 in 10.0 mi Calm Calm - N/A   Clear
11:15 PM 40.5 °F 36.1 °F 85% 30.25 in 10.0 mi Calm Calm - N/A   Scattered Clouds
11:35 PM 41.5 °F 35.1 °F 78% 30.24 in 10.0 mi Calm Calm - N/A   Overcast
11:55 PM 41.2 °F 34.9 °F 78% 30.23 in 10.0 mi Calm Calm - N/A   Mostly Cloudy